COSMOS 1275 DEB, 42113

Orbit data source: Space-Track

COSMOS 1275 DEB, 42113 is space debris in LEO originally from a launch on Thu, 04 Jun 1981 UTC launched from the Plesetsk Missile And Space Complex (PKMTR). Debris objects in space refer to the collection of defunct objects orbiting the Earth. Examples of debris include non-operational satellites, rocket bodies, and fragments generated from explosions, collisions, or faulty payload assembly.

Loading next visibility...
Identifier
42113, 1981-053PZ
Orbit
LEO
Country
Flag of CISCIS
Related business
Manufacturer
Unknown
Mission
Spacecraft
Bus & Motor
Unknown
Mass
Unknown
Launch date (UTC)
1981-06-04 (45 years ago)
Launch vehicle
Unknown
Launch site
Plesetsk Missile And Space Complex (PKMTR)
Object type
Payload
Rocket body
Debris
Shape & HBR
Unknown shape, 0.1 m
Radar Cross Section
Small (<0.1 m²)

Expand to show TLE details & history
Last TLE update: 9 hours ago

TLE from 9 hours ago
0 COSMOS 1275 DEB
1 42113U 81053PZ  26263.51230299  .00000995  00000-0  90956-3 0  9993
2 42113  82.7499 163.3674 0194602  61.9893 111.4375 13.74004614641081
Epoch: 2026-09-20T12:17Z
TLE epoch observation values (Epoch: 2026-09-20T12:17:42.978Z)
Latitude
4.39216°
Longitude
158.97592°
Altitude
1,042.434 km
Speed
7.304 km/s
True Right ascension
22h 51m 14s
True Declination
4° 22' 01"
Sunlit
Object was in full shadow at epoch
Visualization orbit readout
Latitude
Unknown
Longitude
Unknown
Altitude
Unknown
Speed
Unknown
Apparent Right ascension
Unknown
Apparent Declination
Unknown
Sunlit
N/A
Visualization observer readout
Local Sidereal Time
14:02:01
Azimuth
Unknown
Elevation
Unknown
Doppler factor
Unknown
Orbital elements
Apogee altitude
1,125.622 km
Perigee altitude
839.148 km
Semi-major axis
7,360.522 km
Eccentricity
0.01946
Inclination
82.7499°
RAAN
163.3674°
Arg. of periapsis
61.9893°
True anomaly
113.49446°
Mean anomaly
111.4375°
Eccentric anomaly
112.46785°
Mean motion
3.43701 °/min
Orbital period
104.74 mins
BSTAR
0.00090956
Loading maneuver chart data...
Computing Atmospheric mass density...

Documentation

Showing up to 5 results
|